Hourly Weather Abasnurskiy

Today, 22 October, Thursday

Time Temperature Precipitation Wind Pressure Humidity
00:00 -4°C° 0 mm 4 mps 748 mmHg 87%
01:00 -4°C° 0 mm 4 mps 748 mmHg 87%
02:00 -4°C° 0 mm 4 mps 749 mmHg 88%
03:00 -4°C° 0 mm 4 mps 749 mmHg 89%
04:00 -4°C° 0 mm 4 mps 749 mmHg 87%
05:00 -4°C° 0 mm 4 mps 749 mmHg 85%
06:00 -3°C° 0 mm 4 mps 749 mmHg 83%
07:00 -3°C° 0 mm 4 mps 749 mmHg 81%
08:00 -3°C° 0 mm 4 mps 750 mmHg 80%
09:00 -3°C° 0 mm 4 mps 750 mmHg 78%
10:00 -2°C° 0 mm 4 mps 750 mmHg 75%
11:00 -2°C° 0 mm 4 mps 750 mmHg 73%
12:00 -1°C° 0 mm 4 mps 750 mmHg 71%
13:00 -1°C° 0 mm 4 mps 751 mmHg 71%
14:00 -1°C° 0 mm 4 mps 751 mmHg 71%
15:00 0°C° 0 mm 3 mps 751 mmHg 71%
16:00 -1°C° 0 mm 3 mps 751 mmHg 74%
17:00 -1°C° 0 mm 2 mps 751 mmHg 76%
18:00 -2°C° 0 mm 2 mps 751 mmHg 78%
19:00 0°C° 0 mm 1 mps 751 mmHg 80%
20:00 0°C° 0 mm 1 mps 751 mmHg 81%
21:00 -1°C° 0 mm 1 mps 751 mmHg 82%
22:00 -1°C° 0 mm 1 mps 751 mmHg 83%
23:00 -1°C° 0 mm 1 mps 750 mmHg 83%

Tomorrow, 23 October, Friday

Time Temperature Precipitation Wind Pressure Humidity
00:00 -1°C° 0 mm 1 mps 750 mmHg 83%
01:00 -3°C° 0 mm 2 mps 750 mmHg 83%
02:00 -3°C° 0 mm 2 mps 750 mmHg 83%
03:00 -4°C° 0 mm 3 mps 749 mmHg 83%
04:00 -4°C° 0 mm 3 mps 749 mmHg 82%
05:00 -2°C° 0 mm 3 mps 748 mmHg 82%
06:00 -3°C° 0 mm 4 mps 747 mmHg 81%
07:00 -2°C° 0 mm 4 mps 747 mmHg 83%
08:00 -2°C° 0 mm 5 mps 747 mmHg 85%
09:00 -1°C° 0 mm 5 mps 746 mmHg 87%
10:00 -2°C° 0.1 mm 6 mps 746 mmHg 89%
11:00 -2°C° 0.1 mm 6 mps 745 mmHg 91%
12:00 -2°C° 0.1 mm 6 mps 744 mmHg 93%
13:00 -1°C° 0.1 mm 6 mps 744 mmHg 93%
14:00 -1°C° 0.1 mm 6 mps 743 mmHg 92%
15:00 +1°C° 0.1 mm 6 mps 743 mmHg 92%
16:00 +1°C° 0.5 mm 6 mps 742 mmHg 93%
17:00 +1°C° 0.5 mm 6 mps 741 mmHg 94%
18:00 +1°C° 0.5 mm 6 mps 741 mmHg 95%
19:00 +1°C° 0.4 mm 5 mps 740 mmHg 96%
20:00 +1°C° 0.4 mm 4 mps 740 mmHg 97%
21:00 +1°C° 0.4 mm 4 mps 739 mmHg 97%
22:00 +3°C° 0.1 mm 3 mps 739 mmHg 98%
23:00 +3°C° 0.1 mm 3 mps 738 mmHg 98%

Day after tomorrow, 24 October, Saturday

Time Temperature Precipitation Wind Pressure Humidity
00:00 +4°C° 0.1 mm 2 mps 738 mmHg 99%
01:00 +4°C° 0.5 mm 3 mps 738 mmHg 98%
02:00 +4°C° 0.5 mm 3 mps 737 mmHg 98%
03:00 +5°C° 0.5 mm 3 mps 737 mmHg 98%
04:00 +5°C° 0.4 mm 3 mps 737 mmHg 98%
05:00 +5°C° 0.4 mm 3 mps 736 mmHg 98%
06:00 +5°C° 0.4 mm 3 mps 736 mmHg 98%
07:00 +5°C° 0.1 mm 3 mps 736 mmHg 98%
08:00 +6°C° 0.1 mm 2 mps 736 mmHg 98%
09:00 +7°C° 0.1 mm 2 mps 736 mmHg 98%
10:00 +7°C° 0 mm 3 mps 737 mmHg 96%
11:00 +8°C° 0 mm 3 mps 737 mmHg 94%
12:00 +8°C° 0 mm 3 mps 738 mmHg 92%
13:00 +8°C° 0 mm 3 mps 738 mmHg 93%
14:00 +8°C° 0 mm 3 mps 739 mmHg 94%
15:00 +8°C° 0 mm 3 mps 739 mmHg 95%
16:00 +7°C° 0.1 mm 3 mps 740 mmHg 94%
17:00 +7°C° 0.1 mm 3 mps 740 mmHg 93%
18:00 +5°C° 0.1 mm 3 mps 741 mmHg 93%
19:00 +5°C° 0 mm 3 mps 741 mmHg 92%
20:00 +5°C° 0 mm 3 mps 742 mmHg 91%
21:00 +5°C° 0 mm 3 mps 742 mmHg 89%
22:00 +4°C° 0 mm 3 mps 742 mmHg 91%
23:00 +3°C° 0 mm 3 mps 743 mmHg 92%

, 25 October, Sunday

Time Temperature Precipitation Wind Pressure Humidity
00:00 +2°C° 0 mm 3 mps 743 mmHg 93%
01:00 +2°C° 0 mm 2 mps 743 mmHg 93%
02:00 +2°C° 0 mm 2 mps 743 mmHg 94%
03:00 +1°C° 0 mm 2 mps 744 mmHg 94%
04:00 +1°C° 0 mm 2 mps 744 mmHg 94%
05:00 -1°C° 0 mm 2 mps 744 mmHg 93%
06:00 +1°C° 0 mm 1 mps 744 mmHg 93%
07:00 +2°C° 0 mm 1 mps 744 mmHg 90%
08:00 +3°C° 0 mm 1 mps 744 mmHg 86%
09:00 +3°C° 0 mm 0 mps 744 mmHg 82%
10:00 +5°C° 0 mm 1 mps 744 mmHg 82%
11:00 +5°C° 0 mm 1 mps 744 mmHg 82%
12:00 +4°C° 0 mm 2 mps 744 mmHg 82%
13:00 +5°C° 0.1 mm 1 mps 744 mmHg 85%
14:00 +5°C° 0.1 mm 1 mps 744 mmHg 88%
15:00 +5°C° 0.1 mm 1 mps 743 mmHg 91%
16:00 +5°C° 0 mm 1 mps 744 mmHg 92%
17:00 +4°C° 0 mm 1 mps 744 mmHg 93%
18:00 +3°C° 0 mm 2 mps 744 mmHg 94%
19:00 +3°C° 0 mm 2 mps 744 mmHg 94%
20:00 +2°C° 0 mm 2 mps 744 mmHg 94%
21:00 +1°C° 0 mm 3 mps 744 mmHg 94%
22:00 0°C° 0 mm 3 mps 744 mmHg 95%
23:00 0°C° 0 mm 3 mps 745 mmHg 95%

25 October, Sunday

Time Temperature Precipitation Wind Pressure Humidity
00:00 +2°C° 0 mm 3 mps 743 mmHg 93%
01:00 +2°C° 0 mm 2 mps 743 mmHg 93%
02:00 +2°C° 0 mm 2 mps 743 mmHg 94%
03:00 +1°C° 0 mm 2 mps 744 mmHg 94%
04:00 +1°C° 0 mm 2 mps 744 mmHg 94%
05:00 -1°C° 0 mm 2 mps 744 mmHg 93%
06:00 +1°C° 0 mm 1 mps 744 mmHg 93%
07:00 +2°C° 0 mm 1 mps 744 mmHg 90%
08:00 +3°C° 0 mm 1 mps 744 mmHg 86%
09:00 +3°C° 0 mm 0 mps 744 mmHg 82%
10:00 +5°C° 0 mm 1 mps 744 mmHg 82%
11:00 +5°C° 0 mm 1 mps 744 mmHg 82%
12:00 +4°C° 0 mm 2 mps 744 mmHg 82%
13:00 +5°C° 0.1 mm 1 mps 744 mmHg 85%
14:00 +5°C° 0.1 mm 1 mps 744 mmHg 88%
15:00 +5°C° 0.1 mm 1 mps 743 mmHg 91%
16:00 +5°C° 0 mm 1 mps 744 mmHg 92%
17:00 +4°C° 0 mm 1 mps 744 mmHg 93%
18:00 +3°C° 0 mm 2 mps 744 mmHg 94%
19:00 +3°C° 0 mm 2 mps 744 mmHg 94%
20:00 +2°C° 0 mm 2 mps 744 mmHg 94%
21:00 +1°C° 0 mm 3 mps 744 mmHg 94%
22:00 0°C° 0 mm 3 mps 744 mmHg 95%
23:00 0°C° 0 mm 3 mps 745 mmHg 95%

26 October, Monday

Time Temperature Precipitation Wind Pressure Humidity
00:00 0°C° 0 mm 3 mps 745 mmHg 96%
01:00 -1°C° 0 mm 3 mps 745 mmHg 95%
02:00 -1°C° 0 mm 3 mps 745 mmHg 93%
03:00 -1°C° 0 mm 3 mps 746 mmHg 92%
04:00 -2°C° 0 mm 4 mps 746 mmHg 87%
05:00 -2°C° 0 mm 4 mps 747 mmHg 82%
06:00 -1°C° 0 mm 4 mps 747 mmHg 77%
07:00 -1°C° 0 mm 4 mps 748 mmHg 74%
08:00 0°C° 0 mm 4 mps 748 mmHg 72%
09:00 0°C° 0 mm 5 mps 748 mmHg 70%
10:00 0°C° 0.1 mm 5 mps 749 mmHg 72%
11:00 -1°C° 0.1 mm 6 mps 750 mmHg 75%
12:00 -1°C° 0.1 mm 6 mps 750 mmHg 78%
13:00 -1°C° 0 mm 6 mps 751 mmHg 75%
14:00 -2°C° 0 mm 6 mps 751 mmHg 73%
15:00 -1°C° 0 mm 5 mps 752 mmHg 70%
16:00 -2°C° 0 mm 5 mps 753 mmHg 74%
17:00 -2°C° 0 mm 4 mps 754 mmHg 78%
18:00 -2°C° 0 mm 3 mps 754 mmHg 82%
19:00 -2°C° 0 mm 3 mps 755 mmHg 84%
20:00 -4°C° 0 mm 3 mps 755 mmHg 87%
21:00 -3°C° 0 mm 2 mps 756 mmHg 90%
22:00 -3°C° 0 mm 2 mps 756 mmHg 90%
23:00 -3°C° 0 mm 2 mps 757 mmHg 91%

27 October, Tuesday

Time Temperature Precipitation Wind Pressure Humidity
00:00 -3°C° 0 mm 2 mps 757 mmHg 92%
01:00 -4°C° 0 mm 2 mps 757 mmHg 92%
02:00 -4°C° 0 mm 2 mps 757 mmHg 91%
03:00 -4°C° 0 mm 2 mps 758 mmHg 91%
04:00 -4°C° 0 mm 2 mps 758 mmHg 90%
05:00 -4°C° 0 mm 2 mps 759 mmHg 90%
06:00 -3°C° 0 mm 2 mps 759 mmHg 89%
07:00 -3°C° 0 mm 2 mps 759 mmHg 84%
08:00 -2°C° 0 mm 2 mps 759 mmHg 80%
09:00 -1°C° 0 mm 2 mps 759 mmHg 75%
10:00 +1°C° 0 mm 2 mps 760 mmHg 70%
11:00 +2°C° 0 mm 2 mps 760 mmHg 66%
12:00 +3°C° 0 mm 2 mps 760 mmHg 61%
13:00 +3°C° 0 mm 2 mps 760 mmHg 63%
14:00 +3°C° 0 mm 2 mps 760 mmHg 66%
15:00 +3°C° 0 mm 2 mps 759 mmHg 69%
16:00 +2°C° 0 mm 2 mps 759 mmHg 74%
17:00 +1°C° 0 mm 2 mps 759 mmHg 79%
18:00 -1°C° 0 mm 2 mps 759 mmHg 85%
19:00 -1°C° 0 mm 2 mps 759 mmHg 85%
20:00 -2°C° 0 mm 2 mps 759 mmHg 85%
21:00 -2°C° 0 mm 2 mps 759 mmHg 86%
22:00 -2°C° 0 mm 2 mps 759 mmHg 85%
23:00 -2°C° 0 mm 2 mps 759 mmHg 85%
Show more